Weather History for Baraboo, WI

Change the Weather History Date:

Tuesday, June 3, 2014

  Actual Average Record
Temperature  
Mean Temperature 66 °F -  
Max Temperature 74 °F 75 °F 89 °F (1972)
Min Temperature 58 °F 46 °F 34 °F (1990)
Cooling Degree Days 1    
Growing Degree Days 16 (Base 50)    
Moisture  
Dew Point 52 °F    
Average Humidity 61    
Maximum Humidity 85    
Minimum Humidity 42    
Precipitation  
Precipitation 0.00 in - - ()
Sea Level Pressure  
Sea Level Pressure 29.90 in    
Wind  
Wind Speed 10 mph (West)    
Max Wind Speed 18 mph    
Max Gust Speed 26 mph    
Visibility 10 miles    
Events      
Averages and records for this station are not official NWS values.
T = Trace of Precipitation, MM = Missing Value Source: NWS Daily Summary

Daily Weather History Graph

Daily Weather History Graph

Search for Another Location

Airport:

Trip Planner

Search our weather history database for the weather conditions in past years. The results will help you decide how hot, cold, wet, or windy it might be!

Date:

Astronomy

Jun. 03, 2014 Rise Set
Actual Time 5:19 AM CDT 8:34 PM CDT
Civil Twilight 4:44 AM CDT 9:10 PM CDT
Nautical Twilight 3:59 AM CDT 9:55 PM CDT
Astronomical Twilight 3:04 AM CDT 10:51 PM CDT
Moon 10:49 AM CDT (6/3) No Moon Set
Length of Visible Light 16h 25m
Length of Day
15h 14m
Waxing Crescent, 30% of the Moon is Illuminated
Jun 3
Waxing Crescent
Jun 5
First Quarter
Jun 12
Full
Jun 19
Last Quarter
Jun 27
New

Hourly Weather History & Observations

Time (CDT) Temp. Dew Point Humidity Pressure Visibility Wind Dir Wind Speed Gust Speed Precip Events Conditions
12:15 AM 67.6 °F 54.0 °F 61% 29.79 in 10.0 mi West 11.5 mph 19.6 mph N/A   Unknown
12:35 AM 67.1 °F 53.6 °F 62% 29.79 in 10.0 mi WSW 12.7 mph 18.4 mph N/A   Unknown
12:55 AM 66.4 °F 53.6 °F 63% 29.79 in 10.0 mi WSW 11.5 mph - N/A   Unknown
1:15 AM 65.7 °F 53.8 °F 65% 29.79 in 10.0 mi WSW 11.5 mph - N/A   Unknown
1:35 AM 64.8 °F 53.8 °F 68% 29.79 in 10.0 mi WSW 11.5 mph 16.1 mph N/A   Unknown
1:55 AM 64.6 °F 53.6 °F 68% 29.79 in 10.0 mi West 11.5 mph 18.4 mph N/A   Unknown
2:15 AM 64.4 °F 53.6 °F 68% 29.80 in 10.0 mi West 11.5 mph 20.7 mph N/A   Unknown
2:35 AM 63.5 °F 53.1 °F 69% 29.80 in 10.0 mi West 15.0 mph 21.9 mph N/A   Unknown
2:55 AM 63.0 °F 51.3 °F 66% 29.81 in 10.0 mi West 18.4 mph 26.5 mph N/A   Unknown
3:15 AM 62.4 °F 50.9 °F 66% 29.81 in 10.0 mi WNW 10.4 mph 23.0 mph N/A   Unknown
3:35 AM 61.2 °F 50.9 °F 69% 29.82 in 10.0 mi West 9.2 mph 23.0 mph N/A   Unknown
3:55 AM 60.8 °F 50.9 °F 70% 29.82 in 10.0 mi West 16.1 mph 21.9 mph N/A   Unknown
4:15 AM 60.3 °F 50.5 °F 70% 29.83 in 10.0 mi West 13.8 mph 20.7 mph N/A   Unknown
4:35 AM 59.5 °F 50.9 °F 73% 29.84 in 10.0 mi West 11.5 mph 17.3 mph N/A   Unknown
4:55 AM 59.0 °F 51.3 °F 75% 29.85 in 10.0 mi West 11.5 mph 16.1 mph N/A   Unknown
5:15 AM 58.6 °F 50.9 °F 75% 29.86 in 10.0 mi West 10.4 mph 18.4 mph N/A   Unknown
5:55 AM 58.8 °F 50.9 °F 75% 29.88 in 10.0 mi West 11.5 mph 18.4 mph N/A   Unknown
6:15 AM 58.8 °F 50.9 °F 75% 29.89 in 10.0 mi West 9.2 mph 16.1 mph N/A   Unknown
6:35 AM 59.0 °F 50.7 °F 74% 29.90 in 10.0 mi West 13.8 mph 19.6 mph N/A   Unknown
6:55 AM 59.4 °F 50.4 °F 72% 29.91 in 10.0 mi WNW 12.7 mph 18.4 mph N/A   Unknown
7:15 AM 59.9 °F 50.5 °F 71% 29.92 in 10.0 mi WNW 15.0 mph 19.6 mph N/A   Unknown
7:35 AM 60.3 °F 50.0 °F 69% 29.92 in 10.0 mi WNW 11.5 mph 19.6 mph N/A   Unknown
7:55 AM 61.0 °F 49.5 °F 66% 29.93 in 10.0 mi WNW 8.1 mph 18.4 mph N/A   Unknown
8:15 AM 61.3 °F 47.5 °F 60% 29.93 in 10.0 mi NW 13.8 mph 19.6 mph N/A   Unknown
8:35 AM 62.6 °F 47.1 °F 57% 29.94 in 10.0 mi NW 11.5 mph 23.0 mph N/A   Unknown
8:55 AM 62.6 °F 45.9 °F 54% 29.95 in - NW 13.8 mph - N/A   Unknown
9:15 AM 62.8 °F 46.4 °F 55% 29.95 in 10.0 mi NW 11.5 mph 20.7 mph N/A   Unknown
9:35 AM 63.7 °F 47.7 °F 56% 29.97 in 10.0 mi NW 8.1 mph - N/A   Unknown
9:55 AM 64.4 °F 46.9 °F 53% 29.96 in 10.0 mi NW 10.4 mph - N/A   Unknown
10:15 AM 65.7 °F 49.1 °F 55% 29.96 in 10.0 mi West 11.5 mph 16.1 mph N/A   Unknown
10:35 AM 66.4 °F 49.3 °F 54% 29.97 in 10.0 mi West 15.0 mph - N/A   Unknown
10:55 AM 66.6 °F 49.3 °F 54% 29.97 in 10.0 mi West 15.0 mph 19.6 mph N/A   Unknown
11:15 AM 67.5 °F 50.7 °F 55% 29.98 in 10.0 mi West 12.7 mph 18.4 mph N/A   Unknown
11:35 AM 68.0 °F 50.4 °F 53% 29.98 in 10.0 mi West 12.7 mph 16.1 mph N/A   Unknown
11:55 AM 68.2 °F 50.5 °F 53% 29.98 in 10.0 mi West 11.5 mph 19.6 mph N/A   Unknown
12:15 PM 68.7 °F 52.0 °F 55% 29.97 in 10.0 mi West 12.7 mph 19.6 mph N/A   Unknown
12:55 PM 70.2 °F 50.9 °F 50% 29.96 in 10.0 mi West 9.2 mph 16.1 mph N/A   Unknown
1:15 PM 70.9 °F 52.2 °F 51% 29.95 in 10.0 mi West 8.1 mph 18.4 mph N/A   Unknown
1:35 PM 71.6 °F 51.8 °F 50% 29.95 in 10.0 mi West 10.4 mph - N/A   Unknown
1:55 PM 71.6 °F 51.8 °F 50% 29.94 in 10.0 mi WNW 10.4 mph 18.4 mph N/A   Unknown
2:15 PM 72.0 °F 51.1 °F 48% 29.94 in 10.0 mi West 13.8 mph 18.4 mph N/A   Unknown
2:35 PM 72.9 °F 50.9 °F 46% 29.94 in 10.0 mi NW 9.2 mph 16.1 mph N/A   Unknown
2:55 PM 72.9 °F 48.4 °F 42% 29.93 in 10.0 mi NW 9.2 mph - N/A   Unknown
3:15 PM 73.2 °F 52.5 °F 48% 29.93 in 10.0 mi WSW 8.1 mph - N/A   Unknown
3:35 PM 73.4 °F 50.7 °F 45% 29.93 in 10.0 mi Calm Calm - N/A   Unknown
3:55 PM 73.2 °F 52.2 °F 48% 29.93 in 10.0 mi West 9.2 mph - N/A   Unknown
4:15 PM 74.1 °F 50.9 °F 44% 29.92 in 10.0 mi WSW 8.1 mph - N/A   Unknown
4:35 PM 73.6 °F 52.0 °F 47% 29.92 in 10.0 mi WNW 10.4 mph - N/A   Unknown
4:55 PM 73.8 °F 52.9 °F 48% 29.91 in 10.0 mi WNW 5.8 mph - N/A   Unknown
5:15 PM 73.0 °F 51.4 °F 47% 29.91 in 10.0 mi WSW 8.1 mph - N/A   Unknown
5:35 PM 72.5 °F 51.4 °F 47% 29.92 in 10.0 mi West 8.1 mph - N/A   Unknown
5:55 PM 72.0 °F 51.8 °F 49% 29.90 in 10.0 mi West 6.9 mph - N/A   Unknown
6:15 PM 71.2 °F 51.1 °F 49% 29.90 in 10.0 mi West 6.9 mph - N/A   Unknown
6:35 PM 70.5 °F 50.9 °F 50% 29.90 in 10.0 mi West 5.8 mph - N/A   Unknown
6:55 PM 69.8 °F 51.8 °F 53% 29.91 in 10.0 mi West 3.5 mph - N/A   Unknown
7:15 PM 69.3 °F 52.2 °F 54% 29.90 in 10.0 mi WSW 4.6 mph - N/A   Unknown
7:35 PM 68.5 °F 52.7 °F 57% 29.90 in 10.0 mi West 4.6 mph - N/A   Unknown
7:55 PM 68.2 °F 52.7 °F 58% 29.89 in 10.0 mi WSW 4.6 mph - N/A   Unknown
8:15 PM 67.3 °F 52.5 °F 59% 29.89 in 10.0 mi WSW 3.5 mph - N/A   Unknown
8:35 PM 66.7 °F 53.8 °F 63% 29.89 in 10.0 mi Calm Calm - N/A   Unknown
8:55 PM 65.5 °F 54.1 °F 67% 29.89 in 10.0 mi SSW 3.5 mph - N/A   Unknown
9:15 PM 64.9 °F 54.1 °F 68% 29.90 in 10.0 mi SSW 4.6 mph - N/A   Unknown
9:35 PM 63.0 °F 55.8 °F 77% 29.90 in 10.0 mi Calm Calm - N/A   Unknown
9:55 PM 64.6 °F 55.2 °F 72% 29.90 in 10.0 mi Calm Calm - N/A   Unknown
10:15 PM 64.4 °F 54.1 °F 69% 29.91 in 10.0 mi Calm Calm - N/A   Unknown
10:35 PM 62.8 °F 55.6 °F 77% 29.90 in 10.0 mi Calm Calm - N/A   Unknown
10:55 PM 61.0 °F 55.8 °F 83% 29.90 in 10.0 mi Calm Calm - N/A   Unknown
11:15 PM 61.9 °F 55.4 °F 79% 29.89 in 10.0 mi Calm Calm - N/A   Unknown
11:35 PM 60.8 °F 56.3 °F 85% 29.90 in 10.0 mi SSW 4.6 mph - N/A   Unknown
11:55 PM 61.7 °F 56.5 °F 83% 29.90 in 10.0 mi Calm Calm - N/A   Unknown